NOAA 16 DEB, 42429

Orbit data source: Space-Track

NOAA 16 DEB, 42429 is space debris in SSO originally from a launch on Thu, 21 Sep 2000 UTC launched from the Air Force Western Test Range (AFWTR). Debris objects in space refer to the collection of defunct objects orbiting the Earth. Examples of debris include non-operational satellites, rocket bodies, and fragments generated from explosions, collisions, or faulty payload assembly.

Loading next visibility...
Identifier
42429, 2000-055TZ
Orbit
SSO
Country
Flag of USUS
Related business
Manufacturer
Unknown
Mission
Spacecraft
Bus & Motor
Unknown
Mass
Unknown
Launch date (UTC)
2000-09-21 (26 years ago)
Launch vehicle
Unknown
Launch site
Air Force Western Test Range (AFWTR)
Object type
Payload
Rocket body
Debris
Shape & HBR
Unknown shape, 0.1 m
Radar Cross Section
Small (<0.1 m²)

Expand to show TLE details & history
Last TLE update: 3 days ago

TLE from 3 days ago
0 NOAA 16 DEB
1 42429U 00055TZ  26217.46206084  .00004222  00000-0  14352-2 0  9996
2 42429  98.8276 305.0766 0022487  33.8183 326.4432 14.36995529513331
Epoch: 2026-08-05T11:05Z
TLE epoch observation values (Epoch: 2026-08-05T11:05:22.056Z)
Latitude
0.00002°
Longitude
-175.28142°
Altitude
757.993 km
Speed
7.482 km/s
True Right ascension
20h 20m 18s
True Declination
0° 00' 00"
Sunlit
Object was in full shadow at epoch
Visualization orbit readout
Latitude
Unknown
Longitude
Unknown
Altitude
Unknown
Speed
Unknown
Apparent Right ascension
Unknown
Apparent Declination
Unknown
Sunlit
N/A
Visualization observer readout
Local Sidereal Time
21:32:23
Azimuth
Unknown
Elevation
Unknown
Doppler factor
Unknown
Orbital elements
Apogee altitude
781.648 km
Perigee altitude
749.52 km
Semi-major axis
7,143.721 km
Eccentricity
0.00225
Inclination
98.8276°
RAAN
305.0766°
Arg. of periapsis
33.8183°
True anomaly
326.30043°
Mean anomaly
326.4432°
Eccentric anomaly
326.37185°
Mean motion
3.59465 °/min
Orbital period
100.15 mins
BSTAR
0.0014352
Loading maneuver chart data...
Computing Atmospheric mass density...
Loading historical data...
Loading historical data...
Loading historical data...
Loading historical data...
Loading historical data...
Loading historical data...
Loading historical data...

Documentation

Showing up to 5 results
|